Wind_Speed
57 57 55 53 53 55 59 63 67 72 77 79 79 78 79 79 78 77 75 72 68 61 56 50 48 56 58 49 43 41 36 33 40 44 42 43 43 44 45 41 40 40 39 39 39 39 37 33 31 30 30 31 33 34 33 32 31 30 30 30 30 31 31 30 30 28 27 27 28 28 27 26 25 23 21 19 19 19 19 20 22 22 21 21 21 22
59 60 57 51 48 50 53 56 62 67 72 75 78 78 78 77 76 75 73 71 70 62 55 53 53 57 54 45 41 41 41 39 40 45 46 43 41 45 47 43 44 47 46 47 44 40 40 37 32 31 32 33 34 35 36 34 32 31 31 32 32 31 31 30 30 28 27 27 27 27 26 23 21 20 18 17 18 18 18 20 22 21 21 21 21 21
59 61 57 50 46 47 49 52 57 63 67 69 74 77 77 76 74 72 69 67 67 64 57 53 55 58 54 49 48 46 45 45 44 48 52 49 46 48 49 44 45 48 49 49 44 39 39 36 34 34 35 33 31 31 32 31 30 31 32 33 32 31 31 31 29 27 26 26 26 25 24 21 19 18 17 17 18 19 19 21 22 21 21 21 21 22
57 59 56 50 47 46 47 50 54 60 64 66 69 72 75 75 73 70 66 63 62 62 62 58 55 55 49 45 46 45 46 50 49 49 53 54 51 50 50 46 45 46 47 47 44 40 37 33 30 31 33 34 34 34 33 31 30 30 32 33 32 31 31 31 29 27 25 25 25 23 21 19 19 18 17 17 18 19 20 21 21 21 21 21 22 22
52 54 53 50 49 47 46 48 52 58 62 65 66 68 72 74 73 71 64 58 56 54 56 57 57 56 49 43 44 40 41 50 52 47 50 54 53 52 50 47 44 44 44 45 44 42 39 34 28 29 33 34 35 36 36 36 35 32 32 32 31 31 32 31 29 26 25 25 25 22 20 19 19 19 18 18 19 20 20 20 20 20 20 21 22 22
49 51 52 52 50 48 47 47 50 54 59 63 64 66 68 70 71 69 59 52 53 54 52 50 53 59 52 43 45 44 39 45 50 47 49 54 53 52 50 45 44 45 46 45 45 44 43 39 34 34 35 34 34 34 34 37 37 35 33 32 32 33 32 31 28 26 26 26 25 23 20 19 19 19 19 19 20 21 20 19 19 19 19 20 21 21
46 48 51 52 51 49 48 47 47 50 55 60 63 63 63 66 68 62 50 44 48 55 59 56 53 58 57 46 46 50 46 44 47 46 48 52 52 50 50 49 47 47 49 49 48 47 47 45 39 35 35 36 35 34 34 35 35 35 34 32 32 34 33 31 28 26 26 25 25 23 20 19 18 19 20 21 21 21 20 18 18 19 20 20 20 20
45 46 49 52 52 50 49 48 46 47 51 57 60 59 61 64 65 60 50 43 43 48 55 59 59 59 60 55 48 48 48 46 47 47 48 52 53 50 50 52 52 51 52 51 52 51 49 47 41 35 35 38 38 36 35 35 35 35 35 33 33 34 34 32 28 27 26 25 24 22 20 19 19 20 20 21 21 20 18 18 18 19 19 19 19 20
44 46 48 50 51 51 50 48 45 44 48 53 54 56 60 62 60 59 52 43 42 45 46 50 57 62 62 59 54 49 47 47 46 49 49 49 49 47 46 47 50 53 53 52 54 53 46 41 38 36 37 38 38 37 35 35 38 38 35 34 33 34 35 32 29 27 26 25 23 21 19 19 20 21 20 20 20 18 18 17 17 18 18 19 20 21
44 46 46 47 49 50 49 47 44 43 45 48 51 53 58 61 60 57 52 44 43 49 51 45 47 58 63 62 58 52 50 53 53 52 50 45 44 44 42 41 44 48 49 48 52 51 44 40 38 38 39 38 37 36 35 37 40 39 35 34 34 35 36 33 29 28 26 25 22 20 19 19 20 20 19 19 18 18 17 18 18 18 19 20 22 21
43 48 46 43 45 47 48 46 44 43 42 43 48 52 54 58 59 58 53 47 47 51 55 49 40 44 55 59 57 55 53 53 50 46 45 44 43 43 41 41 42 44 44 44 45 46 44 42 41 41 39 37 36 35 35 37 39 37 34 33 35 36 36 33 30 28 26 23 20 19 19 19 20 19 18 18 17 17 17 18 18 18 20 21 21 20
40 49 49 44 42 41 44 45 43 42 41 42 46 48 49 50 55 62 58 51 52 52 49 49 44 40 46 50 51 56 58 52 43 38 38 43 46 43 41 43 42 40 42 44 44 44 44 43 42 42 39 37 37 34 34 36 35 33 33 34 36 38 36 33 30 27 25 22 20 20 19 19 19 18 18 17 17 17 17 17 17 18 19 20 19 18
36 46 50 48 45 42 41 43 43 40 39 43 46 46 44 42 46 58 63 58 56 54 48 44 46 46 47 47 45 46 48 49 47 39 36 42 46 43 43 46 45 40 39 41 43 44 44 42 41 40 37 36 36 34 34 35 33 33 34 35 37 38 35 32 29 26 24 22 21 19 19 19 19 18 17 17 17 17 17 16 17 18 18 17 17 16
33 42 49 50 47 45 43 42 41 39 38 42 46 47 45 42 41 48 58 63 58 54 52 45 43 47 48 48 48 42 36 39 46 45 40 41 42 40 41 43 43 41 38 37 39 40 40 39 40 38 35 33 33 34 35 34 33 34 35 37 39 37 33 30 27 25 24 22 21 19 19 19 18 17 17 17 17 16 15 15 16 17 17 16 16 17
30 40 48 49 47 47 47 46 42 36 34 40 44 47 48 45 40 38 47 61 61 55 53 50 46 46 45 47 49 42 34 33 41 45 43 41 39 37 38 39 39 39 37 36 35 36 36 37 38 36 32 32 31 32 34 33 33 34 36 39 37 32 29 28 26 24 23 21 20 19 19 19 18 16 16 17 15 14 13 15 16 17 16 16 17 17
26 35 43 45 47 48 48 48 45 38 34 37 42 47 51 47 40 34 36 51 62 61 57 54 51 45 40 42 43 39 37 38 41 45 45 42 38 38 39 38 39 38 36 35 33 33 33 35 37 34 31 31 31 32 34 34 34 36 38 38 33 28 28 27 25 23 21 20 19 18 18 18 17 16 16 16 14 12 13 15 16 17 17 17 17 18
20 29 38 42 45 47 47 44 43 41 37 36 41 47 51 47 39 33 29 36 52 63 65 60 52 44 38 40 41 37 37 41 44 46 47 40 32 31 36 37 38 38 35 34 32 32 31 31 34 34 31 31 32 34 35 34 35 37 37 34 29 27 27 26 25 23 21 19 18 17 17 17 16 15 15 15 14 12 13 15 17 17 17 17 17 17
16 27 38 39 38 40 42 41 42 44 40 36 40 45 47 45 41 35 28 28 40 55 65 64 55 47 42 43 46 42 38 41 43 43 44 39 31 29 33 35 36 35 34 34 32 32 32 31 32 31 30 32 33 35 36 36 36 36 34 31 27 27 27 26 25 23 20 19 17 17 17 17 16 15 15 15 14 13 13 15 17 17 17 16 17 17
16 29 36 33 31 33 38 42 44 45 41 38 41 47 47 44 43 38 30 31 37 44 55 63 61 54 47 44 47 47 46 46 39 34 35 34 31 30 32 34 35 36 36 34 32 33 32 32 31 27 28 31 34 36 38 37 36 34 32 29 27 27 27 26 24 21 19 19 19 18 17 16 15 15 15 15 14 13 13 15 17 17 17 17 17 17
17 26 33 33 32 33 38 43 44 42 39 37 41 49 50 45 41 39 34 34 38 38 41 51 60 61 52 48 49 48 46 45 38 31 31 31 31 32 34 35 37 38 37 32 31 31 29 29 29 27 28 31 34 37 37 36 35 32 30 28 26 26 26 24 22 19 19 19 19 18 16 16 15 15 15 15 13 13 13 15 17 17 17 18 17 17
14 15 25 36 35 33 37 41 41 41 39 38 44 51 51 43 38 38 38 37 39 39 36 39 51 59 55 52 53 46 36 35 36 34 31 31 32 35 38 37 38 40 36 30 28 25 23 25 27 27 30 32 34 36 36 36 34 31 29 27 25 25 25 23 21 19 19 19 19 17 15 15 15 14 15 14 13 13 14 16 17 17 18 18 18 18
12 9 17 32 35 31 33 37 39 40 40 41 47 52 49 41 36 36 39 39 35 36 39 39 43 51 55 55 53 45 33 30 34 35 31 30 31 34 40 41 39 39 35 30 28 24 21 24 26 28 31 32 33 34 34 33 32 29 27 26 25 25 24 23 21 20 19 19 18 16 15 15 14 14 15 14 12 13 15 16 16 17 18 18 18 19
12 11 15 27 32 31 32 36 40 41 41 43 48 52 47 40 36 34 34 34 32 34 39 41 40 44 52 55 50 45 39 31 30 32 31 33 32 33 38 40 39 39 37 35 34 31 27 26 27 29 31 31 32 33 33 32 29 28 26 25 25 25 24 23 22 21 20 19 18 17 16 15 15 15 15 14 13 13 16 17 17 18 18 18 18 19
11 13 19 25 28 30 32 36 41 41 40 42 46 50 47 40 35 31 28 27 30 35 39 41 43 44 48 49 43 40 39 33 28 29 30 35 38 39 40 41 40 39 38 38 36 34 31 30 31 31 31 32 33 33 32 30 28 27 26 26 26 25 24 23 23 22 20 19 19 18 17 16 16 16 16 15 14 15 17 18 18 18 18 18 18 19
14 13 18 24 27 31 32 34 40 39 37 40 42 44 45 40 31 27 25 25 28 33 36 37 38 38 40 41 35 32 34 33 30 30 31 34 38 40 42 42 41 39 39 38 35 32 31 31 32 30 30 31 32 32 32 30 28 28 27 27 27 25 25 24 24 23 21 20 19 19 18 17 17 17 17 16 15 16 18 19 19 19 19 19 18 19
12 10 16 27 31 33 34 35 37 34 34 40 43 43 42 38 32 29 29 30 29 30 32 30 24 23 29 34 32 30 32 36 37 36 35 37 40 42 42 42 43 42 40 37 35 33 31 31 31 30 29 30 31 31 31 30 30 30 29 29 28 26 26 26 26 25 22 20 20 19 19 19 18 18 18 16 16 18 20 20 20 19 20 20 19 19
5 9 21 32 34 33 34 36 36 32 34 41 46 44 38 33 32 33 32 31 31 31 31 26 19 21 29 33 34 35 36 38 41 42 41 43 44 44 45 44 43 43 41 37 36 37 35 34 32 30 30 29 29 30 31 31 31 31 31 31 29 27 28 28 27 25 22 21 21 21 21 19 19 19 18 17 17 19 20 20 19 19 20 20 20 20
4 14 27 32 33 31 30 34 37 37 38 43 47 47 38 30 30 33 34 34 32 31 29 23 22 28 32 31 32 37 39 39 41 43 44 44 43 42 43 42 40 41 41 38 37 38 38 35 32 30 29 28 29 32 32 32 32 32 33 33 31 29 29 29 28 24 22 22 23 22 21 20 19 19 18 17 18 20 20 20 19 20 21 21 21 21
8 17 27 28 29 28 29 34 37 38 41 44 46 44 38 32 28 28 31 32 28 26 22 20 26 32 32 31 31 33 35 37 39 40 39 36 34 34 35 36 37 38 38 37 38 38 36 33 30 28 27 28 29 31 31 30 31 33 35 34 32 29 30 30 28 23 22 24 24 23 22 20 19 19 18 18 18 19 20 20 19 20 22 22 21 21
7 13 20 24 27 28 31 33 33 35 39 41 41 38 35 36 34 29 28 27 25 23 17 17 25 30 30 33 34 31 31 34 33 32 31 28 26 27 30 33 35 35 34 35 35 34 32 32 29 27 27 27 27 28 29 30 31 33 34 34 32 30 31 30 26 23 23 25 25 24 22 19 19 19 19 19 19 19 20 20 19 20 22 23 22 21
1 5 12 20 25 26 28 31 31 32 34 37 41 40 35 33 33 31 29 28 26 24 21 19 22 25 30 36 38 34 32 32 31 30 29 27 24 25 27 31 33 34 34 34 33 31 32 34 33 29 28 27 28 30 31 32 32 32 34 34 33 32 31 29 25 23 25 26 25 23 21 19 19 20 20 20 19 19 19 19 20 21 22 22 22 22
4 1 6 16 22 23 25 29 32 32 31 33 39 44 38 29 28 33 33 32 30 28 27 25 21 21 28 36 41 40 37 36 37 37 36 32 29 29 29 30 32 34 35 34 32 31 32 34 33 29 27 28 30 32 32 32 32 32 33 34 33 33 32 29 26 25 26 26 24 22 20 19 20 20 20 20 19 19 19 19 20 22 23 23 23 22
6 3 5 12 19 20 22 25 27 29 31 31 33 43 44 33 29 34 36 35 34 31 29 26 20 18 23 30 36 40 42 43 43 43 41 36 32 32 32 33 34 34 34 32 31 31 31 31 30 29 28 29 31 32 32 31 32 32 33 34 34 33 32 28 26 26 26 24 22 21 20 20 20 21 20 20 20 20 19 20 21 23 24 23 23 23
9 6 5 10 14 16 19 21 21 23 27 30 32 41 47 41 36 36 35 35 35 32 30 26 21 20 22 24 26 31 36 41 42 40 38 34 31 32 33 35 35 32 30 31 31 30 30 30 31 30 30 30 31 32 32 31 31 32 34 35 34 34 32 28 27 27 26 24 23 22 21 20 21 21 21 20 20 20 20 21 23 24 25 25 25 25
14 10 5 9 12 15 18 19 19 19 22 27 32 37 43 45 42 41 39 37 35 33 32 28 24 24 24 23 23 24 27 31 34 37 37 35 34 35 34 33 32 29 28 28 28 27 28 30 30 30 30 30 30 31 32 31 31 33 34 35 35 34 31 28 27 27 25 24 24 23 22 20 20 21 21 21 21 22 22 23 24 26 27 27 26 26
16 13 7 9 12 16 16 13 14 18 21 26 31 34 39 43 42 42 42 41 39 36 34 31 28 28 29 27 27 27 26 25 27 31 35 34 34 34 32 30 30 29 28 27 25 25 26 27 27 27 28 30 31 31 31 31 31 33 34 35 35 33 31 29 28 27 26 25 25 24 22 21 21 22 23 23 23 23 24 25 25 27 28 28 28 27
16 14 9 9 10 13 13 7 8 16 22 25 29 34 40 43 41 39 39 41 42 41 39 36 30 29 32 32 30 28 25 23 23 26 29 29 28 27 26 27 29 29 27 26 25 25 26 26 26 25 26 30 32 32 31 32 32 33 34 35 35 34 32 31 29 28 28 26 25 25 24 24 24 24 25 27 27 26 26 26 26 27 29 29 29 28
16 14 9 9 7 8 9 6 5 14 20 24 28 33 38 42 43 43 40 39 41 41 40 38 33 31 33 33 30 26 21 21 23 25 27 27 24 21 22 24 26 25 23 22 23 23 24 24 24 25 26 30 31 31 32 33 33 33 34 35 35 34 34 32 31 30 29 27 27 28 28 28 28 29 31 32 31 29 27 27 26 27 29 29 28 28
12 11 9 9 6 8 8 7 5 10 18 23 27 31 34 39 42 45 43 41 41 41 40 40 37 33 30 30 32 29 24 24 26 26 29 29 23 20 24 26 25 23 22 22 22 21 20 21 22 24 27 30 30 31 33 33 33 33 34 34 34 35 34 33 32 31 31 30 30 30 31 31 32 32 32 31 31 31 29 27 26 27 28 28 28 28
7 7 8 8 8 9 9 5 3 7 15 23 27 29 31 34 37 39 40 41 42 42 42 43 41 37 32 31 34 34 32 31 28 28 32 31 24 24 30 31 28 27 27 28 27 25 23 23 24 24 26 28 29 31 33 33 33 33 34 34 35 35 35 33 32 32 32 32 31 31 31 32 32 31 30 31 33 32 28 25 25 26 27 28 28 28
2 3 5 8 9 9 7 3 2 3 10 18 24 26 27 29 31 34 35 36 37 37 37 38 39 40 41 40 40 39 38 36 33 33 35 32 28 30 34 33 31 30 29 30 29 28 26 25 25 26 27 29 30 32 33 33 33 34 35 36 36 35 35 34 33 32 32 31 31 30 30 31 31 30 29 30 31 29 25 23 24 26 27 28 27 27
2 3 5 7 8 8 6 1 2 2 5 11 18 22 24 25 28 31 31 31 32 30 29 28 29 33 38 41 42 40 38 39 40 41 38 34 32 33 34 33 32 31 30 29 28 27 27 26 26 26 28 29 30 32 33 33 34 35 36 37 36 36 35 34 33 32 31 30 30 29 28 29 29 29 28 28 28 27 26 25 25 25 26 26 25 25
4 5 6 7 7 7 5 3 2 1 3 7 13 19 21 22 24 25 26 29 28 26 24 24 25 26 28 31 33 33 35 39 41 40 36 33 31 31 31 31 31 31 30 28 27 28 28 27 27 27 28 30 31 32 34 35 36 37 37 37 37 36 35 34 32 31 30 29 28 27 27 27 28 29 29 29 29 30 29 27 26 24 24 24 23 24
4 5 5 6 6 6 5 3 2 2 4 7 11 15 18 20 19 20 23 27 27 25 25 25 25 25 26 26 27 30 33 36 35 32 30 30 29 29 29 30 31 32 31 28 28 29 28 26 27 29 30 31 31 33 35 36 36 36 36 36 37 36 34 32 30 29 28 27 26 26 26 27 27 28 29 29 29 28 27 26 25 24 24 24 25 26
4 5 5 6 6 7 7 6 3 2 4 8 9 11 15 17 16 16 20 24 24 24 26 26 26 27 27 27 27 30 32 32 29 27 27 28 28 28 29 32 34 34 33 30 28 28 27 27 28 31 32 33 34 35 36 36 36 36 36 36 36 35 33 31 28 26 26 25 25 25 25 25 26 26 27 26 26 26 25 25 25 25 26 27 28 29
4 6 6 6 6 6 7 7 4 2 4 8 8 8 12 16 17 16 18 21 22 23 25 26 26 27 29 29 31 32 32 31 26 24 26 28 28 28 31 35 36 37 38 35 32 31 31 31 32 34 34 35 36 36 36 36 36 36 36 36 34 33 31 29 27 25 25 25 25 25 24 25 25 25 25 25 25 25 25 26 27 28 30 31 31 33
4 4 5 7 7 5 4 5 6 5 5 6 7 8 11 15 16 15 16 20 22 23 24 24 25 27 28 30 33 35 34 31 26 24 26 28 30 32 35 34 32 35 38 36 35 35 36 35 35 35 34 34 34 34 34 35 35 35 35 34 33 31 29 27 25 24 24 25 25 24 24 24 24 25 25 25 25 26 27 28 30 31 32 33 34 35
6 6 6 7 9 7 5 5 6 6 7 7 7 10 12 13 15 14 14 17 20 22 23 25 25 27 29 31 34 36 34 30 28 29 30 30 30 33 34 31 29 31 34 33 33 36 37 37 36 34 34 34 35 35 35 35 35 34 33 31 30 28 27 25 25 24 24 25 24 24 23 23 23 24 25 26 27 28 29 31 32 33 34 34 35 36
9 9 9 9 9 9 7 8 7 5 6 8 9 11 12 14 14 12 12 16 19 21 23 26 26 26 28 31 33 35 34 31 31 33 33 32 31 30 30 29 29 30 30 31 33 35 37 38 38 37 38 39 38 38 37 35 34 33 30 28 27 26 26 25 25 24 24 23 23 23 23 23 24 25 27 28 29 30 31 32 33 35 35 35 35 36
10 10 10 11 12 12 11 9 5 3 4 9 11 10 11 13 14 12 10 13 17 19 22 25 26 25 27 29 31 33 33 32 33 33 33 32 31 30 29 30 32 32 31 30 31 33 35 36 37 37 39 41 41 40 37 35 34 32 29 27 26 26 26 25 24 23 22 21 21 22 24 25 26 28 29 29 30 30 31 32 34 35 35 35 35 35
10 11 13 13 13 14 12 9 5 3 6 10 12 11 10 13 15 13 10 10 15 18 19 21 24 24 25 28 30 32 33 33 32 31 31 31 29 27 28 29 29 28 29 29 29 31 34 36 35 34 35 37 40 40 37 35 35 33 30 28 28 27 26 24 23 22 22 22 22 24 26 28 29 30 31 31 31 31 32 33 34 35 35 35 35 35
Wind_Direction
234 234 234 234 232 229 227 226 226 224 224 225 225 227 229 230 232 233 233 232 231 229 226 227 234 239 240 234 227 222 214 217 222 218 224 233 237 243 243 235 234 239 245 250 249 245 243 242 245 251 257 260 263 265 267 270 275 279 282 285 288 288 286 284 282 283 288 292 295 297 298 299 300 301 301 299 297 296 298 301 302 303 305 307 308 309
231 231 232 232 232 231 228 227 226 224 223 224 224 225 226 229 231 232 234 233 231 229 228 226 228 235 237 233 227 219 209 207 215 219 221 228 235 240 243 237 234 238 245 249 251 249 250 252 253 256 258 257 258 260 261 267 273 278 280 282 284 284 282 280 280 285 290 292 295 296 297 299 300 299 299 300 297 295 298 300 300 302 303 304 307 309
229 229 229 230 230 229 227 225 224 223 222 222 223 223 224 226 228 230 231 233 232 228 225 224 228 235 237 234 228 221 215 209 213 219 218 220 228 235 240 238 235 239 245 249 250 250 251 254 255 256 258 259 260 261 261 267 274 276 279 280 280 280 278 277 280 285 288 291 293 293 296 299 297 296 297 296 294 295 297 298 299 299 299 303 307 308
229 227 226 227 228 228 226 224 222 221 220 220 221 222 223 223 224 226 227 230 231 229 228 225 227 233 234 233 227 223 226 220 213 217 219 220 226 231 236 239 243 248 251 251 250 252 251 250 253 257 260 261 264 268 268 272 276 277 278 279 278 277 275 276 280 285 287 289 289 288 293 294 291 293 294 292 292 293 294 296 296 295 296 301 305 307
228 225 223 223 225 226 226 224 222 221 220 219 219 219 221 222 223 224 224 226 227 227 230 229 228 231 231 236 231 226 231 223 212 215 222 225 228 231 236 241 247 252 253 253 252 252 251 247 246 252 256 258 263 269 269 271 274 276 277 277 277 276 274 276 280 283 285 285 283 283 286 287 287 290 292 292 292 293 293 293 293 294 296 301 303 304
228 222 220 219 221 222 224 224 222 221 221 220 218 216 217 220 222 223 221 223 226 224 222 221 227 228 223 228 230 223 226 223 216 217 225 231 233 234 235 237 241 247 251 254 255 254 253 249 243 246 254 258 263 267 269 270 271 273 273 273 275 275 273 275 278 280 282 281 279 278 278 280 284 287 290 292 293 294 294 292 293 296 298 301 302 302
227 220 218 218 218 219 221 223 221 221 223 221 218 215 215 217 219 218 215 216 223 227 223 217 220 223 217 218 224 222 224 226 224 224 228 235 238 237 237 235 238 246 250 253 256 255 255 255 251 253 260 261 262 264 266 269 271 271 271 271 272 272 271 272 274 278 279 278 276 274 274 276 280 284 286 289 291 292 293 292 294 296 297 298 300 301
226 220 217 218 218 217 218 220 220 220 223 222 218 213 212 214 215 213 209 207 213 224 230 223 217 219 220 218 220 221 218 218 225 227 228 235 239 238 240 238 238 244 247 251 255 255 256 260 261 263 266 263 262 262 264 268 271 270 269 269 268 268 269 270 271 274 274 273 273 273 274 275 277 281 284 287 290 291 291 292 294 294 294 295 297 300
222 220 217 216 218 218 218 219 219 220 223 221 216 214 212 211 210 209 206 204 205 214 227 226 217 218 222 222 224 225 219 216 224 230 230 234 238 239 242 241 239 242 245 248 253 254 255 260 263 266 266 264 262 262 264 267 269 269 266 264 265 267 267 267 269 270 270 270 271 272 273 275 278 281 286 290 291 291 292 295 296 296 296 297 300 302
217 215 214 214 217 218 218 219 219 219 223 221 215 213 213 210 205 203 202 198 200 209 217 220 218 221 226 228 229 227 225 226 230 236 235 235 240 244 247 245 241 242 243 245 250 250 251 257 263 264 262 261 261 263 265 266 268 267 262 261 263 265 264 264 266 267 268 269 270 270 272 276 279 282 287 290 290 291 294 297 298 298 299 301 303 305
215 209 206 208 213 216 216 217 218 220 219 218 216 213 212 210 204 200 198 194 198 206 211 214 215 221 228 230 227 223 226 229 230 233 234 234 239 244 247 247 247 248 244 245 249 248 250 256 260 258 257 259 260 263 267 266 266 263 257 258 262 262 262 262 263 264 264 266 267 268 270 273 277 281 286 287 287 290 294 296 296 297 300 302 303 305
218 208 201 199 203 208 212 212 214 218 217 214 214 212 211 210 205 202 198 195 200 202 204 211 212 216 227 230 227 228 231 230 227 230 233 234 236 239 242 246 250 252 247 245 248 248 250 255 257 256 258 260 262 266 268 264 261 259 256 258 260 260 260 260 261 262 261 262 264 264 266 270 275 279 282 283 285 289 292 293 295 297 301 302 303 305
220 211 201 197 198 199 205 209 209 212 214 213 212 208 204 201 203 206 202 198 203 202 196 203 210 216 224 228 230 234 235 231 226 227 231 233 235 239 243 245 249 251 247 245 246 247 250 253 256 258 258 260 264 266 263 258 256 257 257 257 257 257 257 258 260 261 260 260 261 262 264 268 272 276 279 281 284 288 291 293 295 298 300 301 303 302
219 213 204 196 193 194 198 201 204 206 208 211 210 203 195 192 199 208 206 201 203 201 194 195 206 217 222 224 228 232 235 233 227 225 229 231 236 241 242 245 249 249 246 245 244 245 249 252 256 259 258 258 260 260 256 254 254 255 255 254 253 253 254 256 258 259 258 258 259 262 265 268 270 274 278 281 285 289 292 295 297 297 298 300 301 297
216 213 208 198 191 193 196 197 198 198 203 210 209 202 194 190 194 204 209 205 200 196 196 195 202 212 216 219 224 226 228 231 229 227 228 229 233 241 245 248 252 250 247 246 245 244 248 254 258 259 257 255 254 254 253 252 252 252 251 251 251 251 252 254 255 255 255 256 258 261 264 267 270 274 277 280 285 290 294 297 295 293 295 297 296 292
213 209 206 201 195 195 197 200 199 196 199 207 207 202 195 189 189 197 208 210 204 200 201 201 202 206 208 214 221 224 226 227 227 228 229 229 232 242 248 248 248 249 249 248 247 247 253 259 260 258 255 252 250 250 251 252 251 249 248 249 249 248 249 251 253 252 252 253 256 259 264 268 271 274 277 281 286 291 294 294 291 291 293 293 291 289
212 202 196 197 199 199 198 198 198 198 198 201 203 201 195 189 189 194 202 209 210 211 209 206 205 204 202 207 212 219 226 226 223 224 227 226 226 238 243 243 245 248 251 250 246 249 256 260 258 255 252 247 245 247 249 249 248 246 246 247 247 246 248 249 250 249 250 252 255 259 264 268 271 274 276 280 285 289 290 290 289 290 291 291 289 287
196 190 190 195 197 201 202 197 196 199 197 196 198 194 190 189 190 194 203 209 210 215 214 208 205 204 200 202 205 209 218 224 223 224 225 223 223 233 240 244 247 249 252 252 249 251 255 255 252 250 246 241 239 241 244 244 243 243 244 245 245 246 247 247 248 249 251 253 255 258 262 266 270 271 274 278 283 287 288 287 287 288 289 288 286 285
180 183 189 193 192 194 200 199 198 200 198 196 192 185 184 190 192 194 206 209 205 210 214 210 206 204 202 204 206 208 213 220 224 225 222 219 221 228 233 239 244 246 250 252 252 253 252 250 248 243 239 236 233 236 239 240 241 241 241 243 244 246 248 248 249 250 250 251 253 256 260 263 266 268 273 278 283 286 286 284 285 285 285 284 284 284
167 179 187 191 191 189 194 198 197 195 194 192 187 182 184 191 195 198 204 202 197 202 211 212 210 209 209 214 216 214 217 222 223 219 213 210 215 222 227 232 236 242 249 253 256 255 249 246 244 237 234 231 229 233 237 238 239 239 241 243 246 249 251 251 250 248 247 248 252 256 259 261 264 269 274 278 283 285 285 283 282 281 281 281 283 283
166 178 190 193 195 192 192 194 191 189 187 184 182 182 184 190 198 202 201 196 193 197 204 209 213 213 212 217 220 219 221 222 217 212 211 216 222 226 227 229 232 240 247 251 254 252 244 242 240 233 231 227 226 231 235 236 237 238 241 244 247 251 253 252 249 246 245 248 252 256 258 260 264 268 272 276 280 283 283 282 279 277 277 279 280 280
192 199 195 194 199 197 192 189 185 185 187 183 181 182 182 187 196 201 199 192 190 198 202 204 210 213 211 214 218 215 210 208 208 207 210 219 226 225 224 227 234 243 250 249 247 248 247 244 239 234 233 229 228 233 235 236 237 239 243 246 249 252 253 251 247 243 245 249 253 255 256 260 264 266 269 273 277 280 281 279 276 275 275 277 278 279
200 196 183 188 194 192 187 186 181 182 186 185 182 182 181 183 190 195 194 188 187 195 202 203 204 209 212 214 216 213 208 209 217 218 216 222 227 226 226 231 240 248 252 250 248 251 252 246 238 233 232 230 229 232 234 235 236 239 243 247 250 252 252 248 244 243 246 249 252 254 257 260 262 265 268 272 275 278 279 279 276 274 274 275 278 281
181 175 173 183 188 184 183 185 183 181 183 183 181 180 181 181 185 188 187 186 185 189 197 204 205 207 211 213 215 218 217 218 226 231 230 232 234 232 233 239 247 251 250 247 249 249 245 241 237 233 230 229 230 232 234 234 235 238 242 246 249 250 249 246 243 244 246 249 253 256 259 261 261 265 268 272 277 278 278 278 276 273 273 274 278 282
180 180 180 182 181 181 184 185 183 179 176 177 179 178 177 178 183 192 197 193 185 183 189 201 209 213 213 213 218 225 223 219 223 231 233 233 232 231 235 242 246 246 243 241 243 243 240 239 241 240 235 233 234 234 235 234 235 237 241 244 246 247 246 245 244 245 247 250 255 259 261 261 261 264 269 273 278 278 278 278 275 273 272 273 277 280
190 203 190 180 178 182 187 189 187 180 170 171 176 176 174 177 186 198 205 198 181 169 171 184 202 208 205 208 216 221 220 216 216 221 227 229 229 230 235 242 243 242 242 240 238 240 241 242 244 245 240 236 236 237 235 233 234 236 239 243 244 245 244 244 245 246 247 251 257 261 262 262 262 265 269 275 279 279 279 277 275 273 272 272 276 279
185 194 180 177 180 184 189 191 189 181 169 169 178 181 177 178 187 196 197 190 179 167 164 177 194 193 192 201 208 212 217 219 216 216 222 228 233 236 239 241 241 241 241 240 238 238 240 240 241 242 240 236 234 236 236 234 233 235 238 242 243 243 243 243 245 246 249 253 258 261 263 264 263 265 271 277 279 279 279 277 273 270 269 271 274 277
103 171 174 174 181 186 186 187 186 181 173 172 181 187 182 176 186 194 186 178 180 178 171 179 191 190 194 202 203 204 210 216 217 217 221 228 235 238 239 239 238 239 240 239 239 239 240 240 239 238 239 238 236 236 236 235 235 235 237 240 242 241 242 243 245 247 250 255 258 261 263 263 263 266 271 276 278 279 279 276 271 266 265 268 272 276
88 158 173 176 181 185 184 183 183 182 178 175 178 181 178 174 183 193 183 176 188 194 184 183 190 191 195 202 201 198 202 208 212 214 218 225 230 231 233 235 236 237 239 241 242 244 246 245 242 238 240 242 239 236 234 234 235 236 238 241 242 241 242 244 246 248 252 256 260 262 263 263 263 267 270 273 276 277 277 275 269 264 264 267 272 275
83 145 169 180 184 184 184 186 185 181 177 175 175 173 172 175 180 187 186 186 193 199 198 196 194 192 194 197 197 194 197 205 207 205 206 210 214 218 223 229 232 234 238 241 242 245 247 247 243 238 237 240 238 234 233 234 234 235 237 240 241 240 241 244 246 249 253 258 261 263 264 264 264 267 269 271 274 275 275 273 268 263 264 267 272 274
55 137 165 181 184 181 182 187 188 184 178 175 176 175 172 174 182 189 194 197 199 202 208 213 207 200 193 192 195 196 200 206 205 200 200 203 209 216 219 223 228 232 235 237 238 239 241 243 241 236 234 235 235 234 236 235 234 233 235 237 239 238 240 242 244 248 254 259 262 264 265 264 264 266 268 270 273 274 274 271 267 264 264 267 270 272
254 179 153 176 180 177 179 184 187 189 186 182 183 183 177 173 184 195 195 195 201 207 211 213 218 211 195 190 195 199 203 210 214 213 213 214 217 222 224 226 229 231 233 236 237 237 240 244 245 240 233 231 231 233 235 235 233 232 232 234 236 237 238 241 243 248 255 260 262 263 264 263 264 265 267 269 272 273 273 270 267 265 265 265 267 270
227 207 131 162 179 180 179 181 184 189 190 188 189 192 189 183 185 193 194 191 196 204 206 205 208 207 197 193 195 197 201 210 218 222 222 222 221 222 225 228 230 232 236 239 240 241 242 244 246 243 237 233 232 232 231 232 232 231 231 232 233 235 237 239 243 249 255 257 259 260 261 262 264 266 268 270 272 273 272 269 266 265 265 264 265 268
215 210 132 150 181 185 179 177 179 181 183 184 187 192 195 194 190 190 193 193 194 198 199 198 198 200 199 196 191 189 195 204 212 217 218 219 219 219 222 227 230 232 236 240 242 243 243 243 244 243 241 237 234 231 229 229 230 231 231 230 232 234 236 237 242 248 251 252 254 257 259 262 264 267 269 271 273 272 270 267 265 265 265 264 264 265
209 213 159 151 178 183 179 182 182 173 170 179 188 192 194 195 193 193 194 195 196 197 196 196 198 201 201 196 188 186 190 196 200 203 205 206 208 211 215 219 224 228 232 237 242 243 243 244 244 245 243 239 236 234 230 228 229 231 231 230 231 233 234 237 241 245 246 247 251 256 259 262 265 269 271 273 275 272 268 265 264 264 264 264 264 265
206 211 181 162 178 180 183 195 191 175 167 173 184 192 194 193 192 193 194 196 198 198 197 198 200 201 200 197 194 191 190 190 191 194 198 201 205 209 211 215 220 225 229 234 240 243 245 246 245 244 242 239 237 234 230 228 229 231 230 230 231 233 234 237 240 241 242 245 250 255 259 263 268 272 273 275 277 273 267 265 264 263 265 266 266 267
202 207 190 167 170 174 178 189 186 177 175 175 179 187 193 195 195 192 191 194 198 200 201 202 201 200 200 200 202 200 196 194 194 197 203 206 205 206 208 213 219 223 226 230 233 238 243 245 244 242 238 236 234 232 229 228 229 230 229 229 231 233 234 237 239 240 241 244 250 255 258 265 270 274 277 279 278 273 267 266 264 263 266 268 269 270
199 210 198 169 168 177 169 152 172 185 182 181 182 184 188 193 198 198 194 194 197 201 204 204 202 202 203 205 207 206 201 197 196 201 208 204 198 202 210 215 220 223 224 225 225 231 241 246 244 239 235 234 233 230 227 227 228 229 228 229 231 233 235 238 240 241 242 245 251 256 261 266 270 276 278 276 272 269 267 266 264 263 267 271 272 272
202 211 199 182 200 220 190 151 161 191 183 180 182 184 186 191 198 201 202 202 203 202 203 204 203 204 207 210 211 210 208 203 200 208 214 206 201 219 230 228 230 235 236 234 230 232 243 249 246 239 234 233 232 229 227 227 227 227 227 229 231 234 236 239 241 243 245 248 253 259 264 268 272 275 273 269 267 267 267 265 264 264 268 271 271 271
211 217 217 221 239 231 201 155 129 186 184 181 182 184 187 192 198 200 201 206 210 210 210 210 209 209 211 214 216 216 217 215 212 222 228 221 220 237 242 241 244 245 244 243 242 243 249 253 252 246 237 233 232 229 227 226 225 226 227 229 231 234 238 240 243 246 249 252 257 263 267 271 274 274 268 267 270 269 264 263 264 265 267 269 269 270
226 255 257 259 255 231 206 156 84 165 183 185 188 189 187 189 196 199 199 204 211 213 214 215 215 216 217 219 221 221 221 222 224 231 237 236 235 240 243 245 247 245 244 246 248 248 248 248 249 246 237 230 228 227 226 225 225 226 228 230 233 235 239 242 245 249 254 257 261 265 268 272 275 272 267 268 269 265 261 263 265 265 268 270 269 270
298 294 277 272 263 242 229 241 58 132 176 183 189 192 189 188 194 199 199 203 208 210 211 209 209 212 217 221 225 226 227 230 233 236 240 241 240 242 244 246 247 246 246 248 249 249 246 243 243 243 237 230 226 225 225 225 225 228 230 233 235 238 241 245 249 253 257 260 263 267 270 272 272 269 265 265 264 262 264 268 267 266 268 269 268 269
282 284 278 277 263 248 258 307 345 241 202 186 185 190 192 194 198 200 199 200 204 208 208 202 198 201 206 212 217 220 223 228 231 233 235 235 235 239 242 244 246 246 245 244 246 248 246 242 241 239 234 228 225 224 225 226 227 230 233 235 238 240 244 248 252 255 259 262 265 267 267 268 267 264 263 263 263 264 267 268 268 269 268 267 268 271
259 266 268 265 249 251 275 290 280 261 222 192 188 195 200 201 202 204 202 200 202 207 206 200 194 195 199 203 206 209 214 220 224 226 228 229 228 231 235 239 242 244 243 241 243 244 242 238 235 232 227 224 223 224 225 227 229 232 235 237 240 243 246 249 253 256 260 262 264 264 262 263 264 262 260 262 263 264 266 266 267 268 269 270 272 273
220 212 228 238 241 258 264 250 256 285 205 193 200 207 206 202 202 205 205 204 207 211 210 204 197 195 197 201 205 209 214 218 220 221 224 227 226 226 229 232 233 235 235 233 235 238 235 230 226 224 222 220 221 222 225 227 230 233 235 238 241 244 247 250 253 256 258 259 258 258 258 258 257 256 256 258 260 262 264 266 268 270 272 274 275 276
202 191 213 230 240 261 259 248 264 283 202 207 223 219 201 196 200 206 207 207 209 211 211 208 202 199 198 200 205 211 215 217 219 222 227 231 229 228 230 231 232 234 232 226 224 227 228 225 221 218 216 216 218 221 223 227 230 233 236 239 242 245 247 250 252 253 253 252 252 252 252 252 252 253 255 257 260 264 267 269 272 274 275 277 278 279
231 219 225 226 229 241 255 258 265 264 254 251 240 218 203 198 202 211 216 213 211 211 212 212 207 203 202 204 208 215 218 217 217 224 230 232 231 232 234 235 236 238 234 225 218 218 220 220 221 220 218 218 219 221 224 227 230 233 236 239 241 244 247 249 249 247 246 247 249 249 250 252 254 256 259 261 264 267 269 272 274 275 277 278 279 279
251 249 244 237 237 238 245 259 255 257 277 274 231 213 218 216 211 215 218 214 213 214 216 215 211 208 208 209 211 218 222 220 218 224 231 233 234 237 241 240 237 236 232 225 218 215 213 213 215 218 220 220 221 222 223 225 228 231 234 237 240 244 246 245 244 243 243 246 249 252 254 256 258 260 263 265 267 269 271 273 274 276 276 277 277 277
251 246 241 241 245 244 251 266 265 259 267 260 237 227 229 223 216 217 219 217 217 220 220 217 212 210 213 214 214 218 222 222 221 225 233 237 239 242 245 244 237 231 229 226 220 214 211 211 211 213 216 218 219 220 221 223 226 229 232 235 238 239 240 240 240 242 244 248 251 255 258 260 262 265 266 267 269 271 272 273 274 274 274 274 275 275
262 252 246 250 252 251 253 259 259 254 248 243 240 238 230 223 223 227 228 218 210 209 213 213 209 209 215 218 219 221 222 222 224 228 233 238 241 242 243 245 242 233 226 222 216 212 212 213 213 212 213 215 217 218 220 223 226 228 229 230 232 234 235 237 241 243 245 249 252 257 261 265 267 268 269 270 272 272 273 274 274 274 275 276 277 277
269 263 265 266 258 254 257 253 238 278 290 263 246 242 236 231 232 238 243 227 207 202 208 211 208 210 216 219 221 223 224 224 224 227 230 234 237 239 240 242 241 232 220 214 213 214 214 215 216 218 217 215 213 214 218 223 225 226 227 228 229 232 235 238 241 244 247 250 252 257 262 266 268 270 273 275 275 274 274 274 275 276 279 280 281 280
Height
5649 5650 5651 5657 5664 5671 5677 5680 5686 5695 5701 5705 5711 5716 5722 5726 5731 5737 5744 5750 5757 5761 5766 5771 5773 5775 5778 5784 5791 5796 5800 5803 5806 5809 5810 5811 5812 5813 5815 5818 5819 5819 5821 5823 5824 5827 5829 5831 5835 5838 5839 5841 5842 5844 5844 5845 5847 5847 5847 5847 5847 5847 5847 5847 5846 5846 5847 5847 5846 5846 5845 5845 5845 5845 5845 5845 5845 5845 5844 5844 5844 5844 5843 5843 5842 5842
5638 5640 5645 5655 5663 5668 5673 5677 5681 5687 5693 5697 5703 5709 5714 5719 5725 5733 5739 5746 5753 5757 5762 5768 5769 5770 5775 5781 5786 5790 5793 5796 5800 5803 5805 5807 5808 5809 5810 5814 5816 5816 5816 5817 5819 5823 5826 5829 5834 5835 5836 5838 5838 5840 5841 5842 5844 5844 5844 5845 5845 5845 5845 5843 5843 5844 5844 5844 5844 5843 5842 5843 5843 5843 5843 5843 5843 5843 5843 5842 5842 5842 5842 5841 5841 5840
5628 5632 5643 5653 5660 5663 5666 5670 5674 5679 5685 5690 5695 5701 5706 5712 5720 5728 5734 5740 5747 5751 5756 5763 5765 5766 5772 5777 5781 5786 5789 5792 5796 5798 5799 5801 5803 5804 5806 5809 5812 5812 5812 5813 5815 5819 5823 5827 5829 5830 5833 5835 5835 5836 5837 5839 5840 5841 5842 5842 5843 5843 5841 5840 5840 5841 5842 5842 5842 5841 5841 5841 5841 5841 5841 5841 5841 5841 5841 5840 5840 5840 5840 5839 5839 5838
5621 5629 5643 5651 5654 5656 5659 5663 5667 5672 5676 5680 5686 5693 5698 5706 5714 5720 5728 5735 5740 5746 5751 5759 5762 5763 5769 5773 5776 5782 5785 5789 5792 5793 5795 5796 5798 5800 5802 5804 5806 5809 5809 5809 5811 5814 5818 5823 5826 5827 5830 5831 5832 5833 5835 5837 5837 5839 5839 5839 5839 5839 5838 5837 5837 5838 5839 5840 5839 5838 5839 5839 5838 5839 5840 5840 5839 5839 5839 5839 5839 5838 5838 5837 5836 5835
5617 5627 5640 5645 5647 5651 5654 5658 5662 5666 5669 5672 5678 5685 5693 5703 5709 5716 5725 5731 5736 5742 5747 5754 5757 5758 5763 5767 5772 5777 5779 5782 5786 5788 5789 5791 5794 5797 5799 5801 5802 5804 5805 5805 5806 5809 5813 5819 5823 5825 5826 5828 5830 5831 5833 5834 5834 5836 5837 5836 5836 5835 5834 5834 5835 5836 5837 5837 5836 5836 5837 5836 5836 5837 5837 5838 5838 5837 5837 5837 5837 5836 5836 5835 5834 5833
5614 5624 5632 5636 5640 5644 5648 5652 5657 5660 5663 5667 5672 5680 5691 5700 5706 5713 5721 5728 5732 5735 5741 5749 5750 5750 5757 5761 5765 5771 5773 5776 5780 5783 5784 5786 5791 5794 5796 5797 5798 5800 5801 5801 5803 5805 5808 5813 5819 5822 5824 5826 5828 5829 5830 5830 5831 5833 5833 5832 5832 5832 5831 5831 5832 5833 5834 5834 5833 5834 5834 5834 5835 5835 5835 5835 5835 5835 5835 5835 5834 5834 5833 5832 5831 5831
5610 5619 5625 5629 5634 5639 5643 5647 5652 5656 5658 5661 5668 5679 5688 5695 5702 5709 5716 5722 5725 5727 5734 5743 5743 5744 5751 5754 5758 5766 5769 5771 5775 5778 5781 5783 5786 5790 5793 5794 5794 5796 5798 5799 5800 5802 5804 5808 5813 5820 5822 5823 5825 5826 5826 5827 5828 5829 5828 5828 5828 5828 5828 5829 5829 5830 5831 5831 5831 5831 5832 5833 5833 5833 5833 5833 5833 5833 5833 5832 5832 5831 5831 5830 5829 5829
5607 5614 5619 5624 5629 5633 5636 5641 5647 5652 5653 5656 5667 5677 5683 5689 5697 5704 5709 5714 5721 5727 5730 5735 5740 5742 5744 5748 5753 5760 5764 5767 5770 5773 5776 5778 5781 5786 5790 5791 5792 5793 5794 5796 5797 5799 5802 5804 5810 5816 5818 5818 5820 5821 5822 5823 5824 5824 5824 5825 5825 5825 5825 5826 5827 5827 5828 5828 5828 5829 5830 5831 5831 5831 5831 5832 5831 5831 5830 5830 5830 5829 5828 5828 5827 5826
5604 5609 5614 5620 5624 5627 5631 5637 5645 5649 5649 5655 5666 5673 5678 5685 5693 5700 5704 5709 5717 5723 5724 5728 5736 5737 5736 5742 5749 5755 5759 5761 5763 5767 5770 5773 5777 5781 5784 5787 5788 5789 5791 5793 5794 5796 5800 5803 5807 5811 5812 5813 5815 5817 5819 5820 5819 5819 5820 5821 5822 5822 5822 5823 5824 5824 5825 5825 5826 5827 5828 5829 5828 5828 5829 5829 5829 5828 5828 5828 5827 5827 5826 5825 5825 5824
5596 5602 5609 5615 5618 5622 5629 5636 5642 5645 5647 5655 5663 5668 5674 5680 5689 5696 5700 5705 5711 5713 5715 5723 5730 5731 5731 5736 5743 5748 5752 5755 5757 5761 5766 5770 5773 5776 5780 5782 5783 5785 5788 5789 5790 5793 5797 5800 5804 5806 5807 5809 5811 5813 5815 5816 5814 5815 5816 5817 5818 5819 5819 5820 5821 5821 5822 5823 5824 5825 5826 5826 5826 5826 5826 5826 5826 5826 5826 5825 5825 5824 5823 5823 5822 5822
5590 5595 5601 5607 5612 5618 5626 5633 5638 5642 5646 5653 5659 5664 5670 5676 5684 5691 5696 5702 5704 5703 5708 5718 5725 5727 5727 5730 5737 5741 5744 5749 5754 5758 5763 5767 5769 5772 5775 5777 5778 5781 5784 5786 5787 5790 5794 5797 5799 5800 5802 5806 5808 5810 5812 5811 5810 5811 5812 5813 5815 5815 5816 5817 5818 5818 5819 5821 5822 5823 5823 5824 5824 5824 5824 5824 5824 5824 5823 5823 5822 5821 5821 5820 5820 5820
5587 5590 5593 5598 5606 5614 5621 5627 5633 5638 5644 5650 5654 5661 5666 5672 5680 5685 5690 5695 5693 5694 5704 5714 5722 5725 5722 5724 5732 5737 5741 5748 5753 5756 5759 5762 5765 5768 5771 5773 5774 5777 5780 5782 5785 5788 5791 5793 5794 5796 5800 5803 5805 5807 5808 5807 5807 5807 5808 5810 5811 5812 5813 5814 5814 5815 5817 5819 5820 5821 5821 5822 5822 5822 5822 5821 5821 5821 5821 5820 5820 5819 5819 5818 5818 5818
5583 5587 5590 5594 5601 5609 5615 5623 5629 5634 5640 5645 5649 5656 5662 5668 5673 5676 5681 5685 5686 5693 5702 5710 5718 5719 5717 5722 5729 5733 5738 5745 5750 5753 5756 5759 5762 5766 5768 5769 5771 5774 5776 5779 5782 5785 5787 5789 5790 5792 5797 5800 5802 5804 5804 5804 5804 5804 5804 5806 5808 5809 5810 5811 5811 5813 5814 5816 5817 5818 5819 5820 5820 5819 5819 5819 5819 5819 5818 5818 5817 5817 5816 5816 5816 5816
5580 5585 5589 5592 5598 5604 5610 5618 5624 5630 5636 5640 5644 5650 5656 5662 5666 5669 5675 5680 5685 5693 5700 5706 5712 5713 5715 5720 5725 5730 5736 5741 5746 5750 5754 5757 5761 5763 5766 5767 5768 5771 5774 5776 5779 5781 5783 5785 5786 5789 5794 5797 5799 5800 5800 5800 5800 5800 5801 5803 5804 5806 5808 5808 5809 5810 5811 5813 5814 5815 5816 5817 5817 5817 5816 5816 5816 5816 5816 5815 5815 5814 5814 5814 5814 5814
5577 5582 5587 5591 5595 5600 5606 5613 5620 5628 5633 5637 5642 5648 5653 5658 5663 5669 5674 5678 5684 5692 5697 5702 5704 5707 5712 5716 5721 5729 5736 5739 5742 5746 5751 5756 5759 5761 5762 5763 5763 5766 5769 5772 5775 5777 5779 5781 5783 5787 5791 5793 5795 5796 5796 5797 5797 5798 5798 5799 5802 5805 5806 5806 5806 5807 5808 5810 5811 5813 5813 5814 5814 5814 5814 5813 5814 5814 5813 5813 5813 5812 5812 5812 5812 5812
5575 5579 5587 5593 5596 5599 5605 5613 5621 5626 5630 5634 5641 5645 5650 5656 5663 5669 5674 5679 5686 5689 5692 5696 5698 5703 5711 5716 5722 5729 5733 5736 5740 5743 5748 5753 5756 5757 5757 5758 5759 5761 5765 5768 5771 5773 5776 5779 5781 5785 5789 5790 5791 5792 5792 5794 5794 5795 5795 5797 5800 5803 5803 5803 5803 5804 5806 5808 5809 5810 5811 5811 5811 5812 5811 5811 5811 5811 5811 5811 5811 5810 5810 5810 5810 5810
5575 5579 5587 5592 5595 5599 5605 5613 5620 5624 5627 5632 5636 5641 5650 5658 5663 5667 5671 5677 5683 5684 5685 5693 5698 5704 5710 5714 5719 5726 5729 5731 5736 5741 5744 5748 5752 5752 5751 5753 5755 5757 5762 5765 5768 5770 5773 5777 5779 5782 5786 5787 5788 5788 5789 5791 5791 5792 5793 5795 5799 5800 5800 5800 5800 5802 5804 5806 5807 5808 5808 5808 5809 5809 5809 5808 5809 5809 5809 5809 5808 5808 5808 5808 5808 5808
5576 5581 5586 5590 5595 5601 5608 5613 5616 5619 5624 5628 5632 5641 5654 5660 5661 5664 5669 5673 5676 5678 5682 5690 5698 5702 5706 5709 5714 5720 5725 5727 5731 5737 5739 5744 5748 5747 5747 5749 5751 5755 5759 5761 5764 5767 5770 5774 5777 5780 5783 5784 5785 5785 5786 5787 5787 5789 5791 5794 5796 5797 5797 5798 5798 5800 5802 5804 5805 5805 5805 5806 5806 5806 5806 5806 5807 5807 5806 5806 5806 5806 5806 5806 5806 5806
5578 5582 5588 5593 5597 5602 5607 5610 5612 5617 5622 5627 5632 5641 5650 5655 5657 5660 5664 5667 5671 5676 5680 5688 5695 5698 5701 5705 5710 5716 5719 5723 5729 5733 5736 5740 5744 5744 5745 5747 5748 5752 5755 5758 5761 5764 5768 5772 5775 5778 5780 5780 5780 5780 5782 5783 5784 5787 5789 5791 5792 5793 5794 5795 5796 5798 5800 5801 5802 5803 5803 5804 5804 5804 5804 5804 5804 5804 5804 5804 5804 5804 5804 5803 5804 5804
5580 5584 5589 5594 5596 5598 5601 5605 5610 5617 5624 5629 5634 5639 5643 5649 5655 5659 5661 5664 5669 5675 5680 5686 5690 5693 5698 5703 5708 5713 5717 5721 5727 5730 5732 5738 5740 5740 5742 5744 5746 5749 5752 5755 5758 5761 5766 5770 5772 5775 5776 5776 5776 5777 5779 5780 5782 5784 5786 5788 5789 5791 5792 5793 5794 5796 5797 5798 5799 5800 5801 5801 5802 5802 5802 5802 5802 5802 5802 5802 5802 5802 5802 5801 5802 5802
5582 5586 5590 5592 5594 5596 5599 5603 5611 5618 5623 5627 5631 5636 5640 5646 5652 5656 5660 5663 5668 5673 5679 5684 5686 5689 5697 5702 5706 5713 5716 5720 5725 5727 5730 5735 5736 5738 5739 5741 5744 5747 5750 5754 5755 5759 5764 5767 5768 5770 5770 5771 5772 5773 5776 5777 5779 5781 5783 5785 5787 5788 5789 5791 5792 5793 5794 5796 5797 5798 5799 5799 5800 5800 5800 5800 5800 5800 5800 5799 5799 5799 5799 5799 5800 5800
5584 5587 5589 5591 5594 5597 5601 5606 5612 5618 5622 5625 5630 5634 5639 5644 5649 5653 5657 5662 5667 5672 5677 5681 5683 5688 5695 5699 5705 5711 5714 5718 5722 5725 5729 5732 5733 5735 5737 5739 5742 5745 5749 5751 5753 5757 5761 5763 5764 5765 5766 5767 5768 5770 5773 5775 5777 5779 5780 5782 5783 5785 5787 5788 5789 5790 5792 5793 5795 5796 5796 5796 5797 5797 5797 5798 5798 5798 5797 5797 5797 5797 5797 5797 5797 5798
5586 5587 5589 5592 5595 5598 5603 5608 5612 5616 5622 5626 5631 5636 5639 5643 5648 5651 5655 5661 5665 5669 5674 5679 5683 5687 5693 5698 5703 5708 5711 5716 5720 5723 5727 5729 5729 5732 5735 5737 5740 5743 5746 5748 5750 5754 5757 5759 5760 5761 5762 5764 5765 5767 5770 5772 5774 5776 5777 5779 5780 5782 5784 5785 5786 5788 5789 5791 5792 5793 5793 5794 5794 5794 5795 5795 5796 5796 5795 5795 5795 5795 5795 5795 5795 5795
5587 5589 5590 5593 5596 5600 5604 5609 5612 5616 5620 5624 5629 5635 5639 5642 5647 5651 5655 5660 5664 5667 5673 5678 5681 5685 5691 5697 5702 5706 5710 5715 5718 5721 5724 5725 5727 5729 5732 5735 5738 5740 5742 5745 5747 5749 5752 5754 5755 5757 5759 5761 5762 5765 5767 5769 5771 5773 5774 5776 5778 5780 5782 5783 5784 5785 5787 5788 5789 5790 5790 5791 5791 5791 5792 5792 5793 5793 5793 5793 5793 5793 5793 5793 5793 5793
5590 5591 5593 5595 5598 5602 5605 5608 5612 5615 5617 5621 5626 5631 5636 5640 5646 5651 5655 5658 5662 5667 5673 5677 5681 5685 5691 5697 5701 5704 5708 5713 5715 5717 5720 5721 5723 5726 5729 5731 5734 5736 5739 5741 5744 5746 5749 5751 5753 5755 5758 5759 5760 5762 5764 5766 5768 5769 5771 5773 5775 5778 5779 5780 5781 5783 5784 5785 5786 5786 5787 5788 5788 5788 5789 5789 5790 5790 5790 5790 5790 5790 5790 5790 5790 5790
5592 5592 5594 5596 5599 5602 5605 5607 5612 5616 5618 5621 5625 5628 5632 5638 5643 5648 5653 5657 5661 5666 5671 5676 5681 5686 5691 5695 5699 5702 5705 5707 5710 5712 5714 5717 5719 5721 5724 5727 5729 5732 5735 5738 5741 5743 5746 5749 5750 5752 5755 5756 5758 5759 5761 5763 5764 5766 5768 5770 5772 5775 5777 5778 5779 5780 5781 5782 5782 5783 5784 5785 5785 5785 5786 5787 5787 5787 5787 5787 5787 5787 5787 5787 5788 5788
5593 5593 5593 5597 5600 5603 5605 5608 5612 5616 5618 5623 5629 5631 5632 5638 5643 5646 5650 5655 5660 5664 5668 5672 5677 5683 5688 5691 5695 5698 5700 5702 5704 5706 5709 5712 5714 5717 5720 5722 5725 5728 5731 5735 5738 5739 5742 5745 5747 5748 5750 5752 5754 5756 5757 5759 5761 5763 5765 5767 5769 5772 5774 5775 5776 5777 5778 5779 5779 5780 5781 5782 5782 5782 5783 5784 5784 5784 5784 5784 5785 5785 5784 5784 5785 5785
5593 5594 5596 5599 5602 5604 5606 5608 5612 5615 5617 5621 5628 5633 5634 5636 5642 5646 5650 5654 5658 5661 5665 5669 5673 5679 5684 5687 5689 5691 5693 5697 5699 5702 5705 5708 5710 5712 5715 5718 5722 5724 5727 5730 5732 5734 5736 5739 5743 5745 5747 5749 5751 5752 5754 5757 5759 5760 5762 5763 5766 5769 5771 5772 5773 5774 5775 5775 5776 5777 5778 5779 5779 5779 5780 5781 5781 5781 5781 5782 5782 5782 5782 5782 5782 5782
5596 5597 5600 5602 5603 5605 5607 5609 5612 5615 5618 5620 5624 5630 5634 5635 5639 5644 5649 5653 5657 5660 5664 5667 5671 5675 5679 5682 5684 5686 5688 5692 5695 5698 5702 5706 5707 5708 5711 5714 5718 5720 5723 5726 5728 5730 5733 5735 5739 5742 5744 5746 5747 5749 5751 5753 5755 5757 5759 5760 5763 5766 5767 5768 5770 5771 5771 5772 5773 5774 5775 5776 5776 5777 5777 5778 5778 5778 5778 5779 5779 5779 5779 5779 5779 5779
5599 5600 5603 5604 5606 5607 5609 5612 5614 5616 5619 5621 5623 5626 5631 5634 5638 5642 5647 5652 5656 5659 5663 5667 5669 5671 5674 5678 5681 5682 5684 5687 5690 5694 5698 5702 5704 5705 5707 5710 5713 5716 5719 5722 5724 5727 5729 5731 5735 5738 5740 5742 5744 5746 5748 5749 5752 5754 5756 5757 5759 5762 5764 5765 5767 5767 5768 5768 5770 5770 5772 5773 5773 5774 5774 5775 5776 5776 5776 5776 5777 5777 5776 5776 5777 5776
5601 5602 5604 5605 5607 5609 5611 5613 5615 5617 5619 5622 5625 5626 5628 5633 5639 5642 5645 5650 5655 5658 5662 5664 5665 5666 5669 5674 5678 5679 5681 5684 5687 5690 5694 5698 5701 5703 5705 5707 5710 5713 5716 5718 5721 5724 5725 5727 5730 5734 5737 5739 5741 5743 5744 5746 5749 5751 5752 5754 5756 5758 5760 5761 5763 5764 5764 5765 5766 5767 5769 5770 5770 5771 5771 5772 5773 5773 5774 5774 5774 5774 5773 5774 5773 5773
5602 5604 5604 5605 5607 5609 5611 5613 5615 5618 5621 5625 5630 5632 5631 5633 5638 5641 5643 5647 5651 5655 5658 5661 5662 5664 5667 5670 5674 5677 5680 5683 5685 5687 5690 5694 5698 5701 5703 5705 5707 5709 5712 5715 5718 5720 5722 5723 5726 5731 5734 5736 5737 5739 5741 5743 5745 5747 5749 5751 5752 5754 5756 5758 5759 5760 5761 5762 5763 5765 5766 5767 5767 5768 5768 5769 5770 5770 5771 5771 5771 5771 5770 5770 5770 5770
5603 5604 5605 5606 5608 5610 5611 5613 5616 5619 5623 5627 5633 5637 5636 5635 5636 5639 5642 5645 5648 5651 5655 5658 5660 5662 5665 5668 5671 5674 5678 5681 5683 5686 5689 5693 5696 5699 5701 5703 5704 5706 5709 5711 5714 5717 5719 5721 5724 5727 5730 5733 5734 5736 5738 5740 5742 5743 5745 5747 5748 5750 5752 5754 5756 5757 5758 5759 5761 5762 5763 5764 5764 5764 5765 5766 5766 5767 5768 5768 5768 5767 5767 5767 5767 5767
5604 5605 5606 5608 5609 5611 5612 5614 5617 5620 5623 5627 5630 5634 5636 5636 5636 5638 5641 5644 5647 5650 5652 5655 5658 5660 5662 5665 5668 5671 5675 5677 5680 5683 5687 5691 5694 5696 5698 5699 5701 5704 5706 5708 5710 5713 5716 5719 5721 5724 5727 5729 5731 5732 5734 5736 5737 5740 5741 5743 5745 5746 5748 5750 5752 5753 5755 5757 5758 5759 5760 5761 5761 5761 5762 5762 5763 5763 5764 5765 5764 5764 5764 5763 5763 5763
5605 5606 5607 5609 5610 5612 5613 5615 5617 5619 5622 5626 5628 5631 5634 5636 5637 5637 5639 5642 5646 5649 5651 5654 5657 5658 5660 5663 5666 5668 5671 5674 5676 5679 5683 5686 5688 5690 5693 5696 5699 5702 5704 5705 5707 5710 5713 5716 5718 5721 5723 5725 5726 5728 5730 5732 5734 5736 5738 5740 5741 5743 5744 5747 5748 5750 5752 5754 5755 5756 5757 5758 5758 5758 5758 5759 5760 5760 5760 5761 5761 5760 5760 5760 5760 5760
5606 5606 5608 5609 5610 5612 5614 5616 5617 5619 5621 5624 5627 5630 5633 5634 5636 5637 5638 5640 5644 5648 5651 5653 5655 5657 5659 5662 5664 5665 5668 5671 5675 5677 5680 5682 5684 5687 5691 5695 5697 5699 5701 5702 5705 5707 5709 5711 5714 5717 5719 5721 5722 5724 5726 5728 5730 5732 5735 5737 5738 5739 5741 5743 5745 5747 5749 5751 5752 5753 5754 5755 5755 5755 5755 5755 5756 5756 5756 5757 5757 5757 5756 5756 5756 5756
5606 5607 5608 5609 5611 5612 5614 5615 5617 5618 5620 5622 5624 5627 5629 5633 5635 5637 5639 5641 5645 5648 5651 5652 5655 5658 5660 5661 5663 5664 5667 5671 5674 5677 5679 5682 5684 5687 5690 5692 5694 5696 5698 5701 5703 5704 5705 5707 5710 5712 5715 5716 5718 5720 5723 5725 5727 5729 5731 5733 5734 5736 5737 5739 5741 5744 5746 5747 5749 5749 5750 5751 5751 5752 5751 5751 5751 5752 5752 5752 5753 5753 5752 5752 5753 5753
5607 5608 5609 5610 5611 5612 5613 5615 5616 5618 5619 5621 5622 5624 5626 5630 5634 5636 5639 5642 5645 5647 5650 5652 5655 5658 5660 5662 5664 5665 5668 5671 5674 5676 5678 5680 5683 5686 5687 5689 5691 5693 5696 5699 5701 5703 5704 5705 5707 5709 5711 5712 5714 5717 5719 5721 5723 5725 5727 5729 5730 5732 5733 5735 5738 5740 5742 5744 5745 5745 5746 5748 5748 5748 5747 5746 5746 5747 5747 5748 5749 5749 5749 5749 5749 5749
5608 5609 5610 5611 5611 5612 5613 5614 5616 5617 5618 5619 5621 5623 5625 5628 5630 5633 5637 5640 5641 5644 5647 5650 5653 5657 5660 5662 5663 5665 5668 5671 5673 5675 5675 5678 5682 5684 5684 5686 5689 5692 5694 5696 5698 5701 5702 5704 5705 5706 5707 5709 5711 5713 5715 5717 5720 5722 5723 5725 5727 5728 5729 5731 5734 5736 5738 5740 5741 5742 5743 5743 5744 5744 5743 5742 5742 5743 5744 5745 5746 5746 5745 5745 5745 5745
5610 5610 5611 5611 5611 5612 5613 5614 5615 5616 5617 5618 5620 5621 5623 5626 5628 5631 5634 5636 5638 5642 5645 5648 5651 5655 5658 5661 5662 5664 5667 5670 5673 5673 5672 5675 5680 5681 5681 5684 5687 5689 5692 5693 5695 5697 5699 5701 5702 5703 5704 5706 5708 5710 5712 5714 5716 5718 5720 5721 5723 5724 5725 5728 5730 5732 5734 5736 5737 5738 5739 5739 5739 5740 5740 5739 5739 5739 5740 5742 5742 5742 5741 5741 5741 5741
5610 5611 5611 5611 5611 5612 5612 5613 5614 5615 5616 5618 5619 5620 5621 5624 5626 5629 5632 5634 5636 5639 5642 5645 5649 5653 5655 5657 5659 5662 5665 5668 5670 5670 5670 5674 5678 5678 5679 5681 5684 5686 5688 5690 5692 5694 5695 5697 5698 5699 5701 5703 5704 5706 5708 5710 5712 5714 5716 5717 5719 5721 5722 5724 5726 5728 5730 5732 5733 5734 5735 5735 5735 5735 5736 5736 5735 5735 5736 5738 5738 5738 5737 5737 5737 5737
5611 5611 5611 5611 5612 5612 5612 5613 5614 5615 5616 5617 5619 5620 5621 5623 5625 5627 5629 5632 5634 5637 5639 5642 5646 5649 5652 5654 5656 5660 5664 5665 5666 5666 5669 5672 5674 5674 5676 5679 5681 5683 5686 5687 5688 5690 5691 5693 5694 5695 5697 5699 5700 5702 5704 5706 5708 5710 5712 5714 5715 5717 5719 5721 5722 5724 5726 5727 5729 5730 5730 5731 5730 5731 5731 5732 5732 5732 5733 5734 5734 5734 5734 5734 5734 5734
5610 5611 5611 5611 5612 5612 5612 5613 5613 5614 5616 5617 5619 5620 5622 5623 5624 5626 5628 5631 5633 5635 5637 5639 5642 5645 5648 5651 5654 5658 5660 5660 5661 5663 5667 5670 5671 5672 5674 5675 5677 5680 5682 5684 5685 5686 5687 5688 5689 5691 5693 5695 5697 5699 5700 5702 5704 5705 5708 5710 5712 5713 5715 5716 5718 5720 5721 5723 5724 5725 5726 5726 5727 5727 5728 5728 5729 5729 5729 5730 5730 5730 5730 5730 5730 5730
5611 5611 5611 5612 5612 5612 5613 5614 5614 5614 5615 5617 5619 5620 5621 5622 5624 5625 5627 5629 5631 5633 5634 5637 5639 5642 5645 5648 5650 5652 5653 5653 5656 5660 5663 5665 5667 5669 5670 5671 5673 5675 5678 5680 5681 5681 5682 5683 5684 5686 5688 5690 5692 5694 5696 5698 5700 5702 5704 5706 5707 5709 5711 5712 5714 5715 5717 5718 5719 5720 5721 5722 5723 5724 5724 5724 5725 5725 5726 5726 5726 5726 5726 5726 5726 5727
5611 5611 5612 5613 5613 5613 5613 5614 5614 5615 5615 5617 5618 5619 5620 5622 5623 5625 5627 5629 5630 5632 5633 5635 5636 5638 5641 5644 5646 5647 5648 5649 5653 5656 5658 5660 5662 5665 5666 5666 5666 5667 5669 5673 5676 5677 5678 5679 5680 5682 5684 5686 5688 5690 5692 5694 5696 5698 5700 5701 5703 5705 5707 5708 5710 5711 5713 5714 5715 5716 5717 5718 5719 5720 5720 5720 5721 5721 5722 5722 5722 5722 5722 5722 5723 5723
5612 5612 5613 5613 5614 5614 5614 5614 5614 5615 5616 5617 5618 5618 5619 5621 5622 5624 5625 5627 5629 5631 5632 5634 5635 5635 5638 5640 5642 5643 5644 5647 5650 5653 5655 5656 5659 5661 5662 5661 5662 5663 5663 5665 5668 5671 5673 5675 5676 5678 5680 5682 5684 5686 5689 5691 5693 5694 5696 5697 5699 5701 5703 5704 5706 5707 5709 5710 5711 5712 5713 5714 5715 5716 5716 5717 5717 5718 5718 5718 5718 5718 5718 5718 5719 5718
5612 5612 5612 5613 5613 5613 5613 5614 5615 5615 5616 5616 5617 5618 5618 5619 5621 5623 5624 5625 5627 5629 5630 5632 5633 5634 5636 5638 5639 5639 5641 5644 5649 5651 5652 5654 5656 5656 5656 5658 5662 5664 5664 5663 5663 5665 5667 5670 5673 5676 5678 5680 5682 5685 5687 5688 5689 5691 5692 5694 5696 5697 5699 5701 5702 5704 5705 5706 5707 5708 5709 5710 5711 5712 5712 5713 5714 5714 5714 5715 5714 5714 5714 5714 5714 5714
5612 5612 5612 5612 5612 5612 5612 5613 5614 5614 5615 5615 5616 5617 5618 5618 5620 5621 5622 5624 5625 5627 5628 5630 5631 5632 5633 5635 5636 5637 5639 5643 5647 5649 5649 5651 5652 5652 5653 5656 5660 5663 5665 5666 5665 5665 5665 5666 5668 5672 5675 5677 5679 5681 5683 5684 5686 5687 5689 5691 5693 5694 5696 5697 5699 5700 5701 5702 5703 5704 5705 5706 5707 5708 5709 5709 5710 5710 5711 5711 5711 5710 5710 5710 5710 5709
5611 5611 5611 5612 5612 5611 5610 5611 5612 5613 5614 5614 5615 5616 5617 5618 5619 5620 5621 5622 5623 5625 5626 5628 5629 5630 5631 5633 5634 5635 5637 5641 5644 5645 5647 5648 5649 5650 5651 5653 5655 5659 5662 5665 5665 5665 5666 5665 5665 5665 5668 5670 5673 5675 5677 5679 5681 5684 5686 5688 5690 5691 5693 5694 5695 5697 5698 5699 5700 5701 5701 5702 5703 5704 5705 5706 5706 5707 5707 5707 5706 5706 5705 5705 5704 5703
5610 5610 5610 5611 5611 5610 5609 5610 5611 5612 5612 5612 5614 5615 5616 5617 5618 5619 5620 5620 5621 5623 5624 5625 5627 5628 5630 5632 5633 5634 5635 5637 5640 5642 5644 5645 5647 5648 5648 5649 5651 5654 5657 5660 5661 5662 5663 5664 5664 5663 5663 5664 5666 5670 5673 5675 5677 5680 5682 5684 5686 5688 5690 5691 5693 5694 5694 5695 5696 5697 5697 5698 5699 5700 5701 5702 5702 5702 5702 5701 5701 5700 5700 5699 5699 5698
5610 5610 5609 5609 5610 5609 5609 5610 5612 5613 5613 5612 5613 5614 5615 5616 5617 5618 5619 5619 5620 5621 5622 5623 5624 5627 5629 5630 5632 5633 5634 5635 5637 5638 5640 5643 5645 5646 5646 5646 5648 5650 5653 5656 5658 5658 5659 5661 5663 5664 5664 5663 5662 5664 5668 5671 5674 5676 5678 5680 5682 5684 5687 5688 5690 5691 5691 5692 5692 5693 5693 5693 5694 5695 5696 5697 5697 5697 5696 5696 5695 5695 5694 5694 5693 5693